Dewpoint
58 58 58 55 55 54 54 54 54 54 52 50 48 49 50 50 48 48 50 51 49 48 50 53 52 51 52 53 52 53 55 53 50 51 52 53 52 52 52 51 50 47 48 47 47 49 49 49 49 50 51 52 52 51 52 53 53 54 55 56 55 58 59 60 59 59 60 62 61 61 63 64 62 63 62 62 64 64 66 66 68 68 69 70 71
58 58 55 53 53 52 54 54 54 54 53 52 48 46 47 48 49 50 47 50 49 48 49 50 51 51 51 53 54 52 54 54 50 51 50 51 49 44 45 48 48 46 46 49 49 48 49 50 48 48 52 51 51 50 52 52 54 52 52 53 53 55 58 57 57 59 59 61 60 61 61 62 62 64 64 60 63 65 65 65 67 67 68 68 69
54 56 54 53 52 53 53 53 51 52 52 52 51 47 46 48 50 50 50 48 47 48 49 51 54 54 54 55 54 52 53 51 51 51 51 51 49 45 44 45 46 44 45 48 47 49 48 48 48 51 51 49 49 52 53 53 54 53 55 53 52 53 55 58 58 57 59 59 59 58 61 61 60 62 63 62 63 63 64 63 66 66 66 67 67
55 55 53 50 49 49 49 51 53 52 51 50 51 49 49 49 49 50 52 51 48 49 52 54 54 54 53 53 52 54 53 50 47 49 49 50 49 47 46 45 43 43 44 45 46 48 50 50 48 48 50 51 50 51 52 55 56 55 55 54 53 55 57 58 59 59 59 57 59 58 58 59 60 62 63 64 62 60 63 64 65 66 66 65 65
53 53 53 52 51 51 51 52 53 52 52 51 50 50 49 47 47 47 50 51 51 51 51 53 53 52 49 49 50 53 53 51 50 47 46 47 49 46 46 46 44 43 43 45 47 48 47 50 49 50 51 49 48 52 52 54 56 57 56 54 54 55 57 58 59 59 59 57 57 58 59 59 59 60 61 61 61 61 62 64 63 65 65 65 64
51 51 50 52 54 53 53 53 52 52 51 50 50 50 50 49 48 46 51 53 53 51 51 50 49 50 48 47 51 52 53 52 52 51 49 46 46 47 47 47 45 44 44 43 44 46 46 47 48 49 49 49 50 52 53 54 55 57 57 57 56 55 56 57 57 57 56 56 57 55 58 57 57 59 59 60 59 59 60 61 62 63 64 64 64
54 52 50 50 54 53 51 51 50 50 49 50 50 50 49 47 47 50 52 53 52 51 49 51 49 48 50 48 49 53 53 52 53 51 50 49 47 45 44 46 46 45 45 45 45 47 47 45 47 49 49 50 50 52 53 54 53 56 57 57 57 57 53 54 54 55 55 54 54 55 55 56 57 56 58 60 60 59 59 58 59 61 63 63 63
54 53 53 52 54 50 51 50 50 52 52 52 51 50 49 49 50 51 52 53 51 49 49 47 48 50 49 50 52 54 53 52 53 52 50 50 49 47 46 44 44 44 44 46 45 45 47 46 46 48 50 51 50 50 51 51 53 54 55 58 56 56 55 54 53 53 53 51 51 52 53 54 56 56 56 58 58 57 58 57 57 58 60 63 63
54 51 53 53 52 52 53 51 51 52 53 53 52 51 50 51 52 52 52 51 51 52 51 48 48 47 48 49 51 51 50 50 52 52 51 50 51 50 49 47 46 45 44 43 45 44 46 45 45 47 50 50 50 50 49 51 52 53 55 56 57 55 56 55 55 53 51 50 51 51 51 53 54 55 54 54 55 55 57 58 58 57 59 60 63
55 54 52 52 53 53 53 53 52 52 52 52 53 52 52 52 52 52 52 51 54 54 54 52 49 48 48 48 48 49 48 47 53 54 55 54 53 49 47 47 48 47 46 45 45 45 44 43 46 47 48 49 50 49 50 50 50 51 52 56 56 57 56 56 54 54 53 53 49 49 49 50 49 53 53 53 55 56 56 57 56 56 58 59 61
54 52 53 53 55 55 54 53 53 52 53 53 53 53 53 53 52 52 52 54 54 55 54 54 53 51 49 47 47 48 48 46 52 52 53 53 54 52 49 48 49 48 46 46 46 45 42 44 45 46 47 49 48 48 49 50 49 50 52 53 55 56 56 55 54 54 54 52 52 51 50 51 50 52 51 52 54 55 54 56 55 56 56 57 56
54 54 54 55 55 54 52 54 54 53 53 54 54 54 54 54 53 52 52 53 53 54 54 54 54 53 53 52 50 49 51 51 51 50 51 53 51 53 50 49 47 46 46 44 42 43 43 44 43 45 47 48 48 47 48 49 49 49 49 51 52 54 56 57 56 55 55 54 53 53 53 54 55 55 53 53 53 54 55 55 56 55 55 55 57
54 54 55 55 56 55 55 55 55 53 54 54 55 54 54 54 53 54 53 54 54 54 54 53 54 53 54 54 53 51 50 52 52 50 50 50 51 54 49 49 48 47 47 45 44 43 47 45 44 42 41 48 46 46 49 49 49 49 49 48 49 51 53 55 56 57 57 55 55 55 55 55 55 55 56 56 56 55 54 52 55 55 55 56 56
54 56 56 55 56 56 55 55 55 54 54 54 54 55 54 53 53 53 54 54 54 53 52 52 52 53 53 53 53 52 51 53 52 50 50 50 51 53 51 49 48 48 49 48 44 45 47 47 47 46 45 46 46 45 47 48 48 49 50 49 48 48 50 53 54 55 55 56 55 54 55 56 56 56 56 56 55 54 54 54 56 55 55 55 57
55 55 56 56 56 56 56 55 54 55 56 56 55 55 54 55 54 54 53 52 53 54 53 52 53 53 53 52 51 50 51 53 53 51 51 51 51 56 51 49 48 49 48 47 49 46 46 44 48 47 48 46 46 50 50 49 47 46 48 47 47 47 50 49 48 50 53 53 52 52 52 53 55 55 55 54 55 54 55 55 56 56 56 57 59
54 54 55 56 56 57 55 55 55 56 56 56 55 55 55 55 55 54 54 53 52 53 53 53 53 53 53 53 52 51 52 56 53 53 52 52 52 52 52 50 50 49 49 48 48 47 47 48 50 49 48 49 51 55 54 52 46 46 46 46 46 46 46 51 50 50 52 52 51 51 52 54 56 56 57 55 53 55 56 56 56 56 55 53 52
53 53 54 55 57 57 55 55 54 56 55 55 55 54 54 54 54 55 54 53 52 52 53 53 54 53 53 53 52 52 51 57 58 56 55 54 53 51 52 50 50 49 48 47 47 47 48 50 51 47 47 48 52 55 54 51 46 46 46 45 44 45 45 47 52 49 49 53 54 54 54 55 55 56 57 57 57 58 56 55 53 55 53 52 51
52 53 53 55 57 57 56 55 54 54 55 54 55 54 54 55 54 55 54 53 52 52 53 52 53 53 52 52 52 52 51 56 58 56 57 55 53 52 52 50 50 49 48 47 47 48 52 51 49 47 45 48 53 55 53 50 46 45 45 44 45 43 43 43 45 44 47 53 53 53 53 52 54 56 56 56 57 55 55 54 52 54 53 52 52
51 51 53 55 55 54 54 54 53 54 54 54 55 55 55 55 55 55 54 54 54 54 52 52 52 53 53 53 52 54 54 56 58 57 57 56 55 53 51 50 50 50 47 47 48 46 46 50 49 49 49 52 54 54 52 49 46 45 47 46 44 44 42 43 46 47 49 47 47 48 48 47 50 50 52 48 50 53 56 55 54 55 55 53 53
53 53 54 54 54 54 54 55 55 55 55 55 55 54 55 55 55 54 54 52 51 52 52 52 53 53 53 53 51 53 55 54 55 56 56 56 53 53 52 49 50 50 49 47 47 48 46 47 48 52 54 53 54 52 53 53 47 46 46 44 42 42 46 47 48 46 49 48 50 49 49 49 49 49 49 50 50 52 54 54 56 56 56 56 54
54 54 54 53 53 54 54 55 55 55 55 55 55 55 55 54 54 54 54 53 53 52 53 54 53 53 52 53 52 53 52 54 55 57 56 57 56 53 52 51 51 50 48 47 46 46 47 45 45 48 54 53 53 52 52 53 48 46 45 46 46 49 51 48 48 47 48 49 48 47 47 46 48 48 45 49 48 49 51 53 54 56 56 55 55
55 55 55 55 55 55 55 56 56 54 55 55 55 54 54 55 54 53 53 53 54 54 54 53 52 52 52 52 53 53 52 53 54 59 56 56 56 51 52 51 51 51 50 49 47 47 49 47 48 51 53 53 54 51 52 52 50 44 48 52 53 54 51 47 47 48 47 46 45 45 45 42 42 44 43 45 45 48 49 52 55 56 55 56 56
55 55 55 55 55 55 55 55 54 53 54 55 55 54 52 54 55 55 54 53 53 53 53 53 53 52 52 52 53 54 58 57 56 57 58 55 54 55 54 52 50 52 51 49 49 49 50 49 48 48 53 50 51 51 51 52 43 47 51 52 52 54 48 44 47 47 47 47 48 48 48 45 44 44 45 45 46 51 49 53 55 56 55 55 56
55 55 54 54 54 54 55 54 55 54 55 55 55 55 54 54 54 53 53 53 52 53 53 52 52 52 51 51 52 53 57 59 57 56 58 55 54 54 52 52 53 52 52 49 49 49 50 49 52 51 50 48 50 51 52 48 46 50 51 51 54 45 44 44 44 47 48 46 46 46 47 46 46 45 46 48 47 51 51 51 53 54 54 53 55
53 54 54 55 55 54 54 54 54 54 55 54 55 53 54 54 53 54 54 53 53 53 53 51 52 52 52 53 53 54 55 56 58 58 57 60 55 53 52 51 50 50 51 51 50 52 54 51 50 50 51 51 51 52 53 53 51 52 52 53 42 42 44 43 45 46 46 45 43 45 45 46 46 46 50 51 51 50 50 50 51 51 53 54 54
54 54 54 55 55 55 55 54 55 55 54 54 54 54 54 53 53 53 53 53 53 53 53 50 50 51 51 52 53 53 54 56 57 57 56 57 57 53 52 52 50 52 50 52 51 50 50 53 53 51 51 52 49 47 47 46 46 48 51 42 42 43 43 43 45 45 45 42 42 42 42 43 45 49 51 51 50 48 49 50 50 48 50 51 51
54 55 54 53 55 56 55 55 54 55 56 54 53 53 53 53 54 54 53 52 53 53 51 51 50 49 50 50 50 50 51 53 55 56 56 56 56 58 55 52 51 51 54 53 52 52 53 53 52 52 50 48 48 46 44 43 45 43 42 42 42 41 43 46 46 45 45 44 43 43 44 45 48 49 48 47 48 48 50 49 46 45 47 49 49
50 52 49 52 52 52 52 52 53 53 54 55 50 49 52 52 51 52 52 52 52 51 51 51 50 50 48 47 49 49 47 49 51 52 52 52 52 52 55 55 54 53 51 50 52 53 51 48 52 51 50 50 48 47 42 43 43 43 42 42 42 43 42 42 42 46 46 46 44 45 45 47 45 45 46 46 45 47 49 48 47 45 44 46 46
53 50 50 50 50 52 50 53 54 52 54 55 53 55 53 52 52 53 54 54 54 54 52 51 51 49 47 49 48 47 48 47 53 53 60 52 57 55 53 53 53 53 55 52 51 51 52 50 49 48 46 44 43 41 38 40 41 41 42 42 44 43 41 41 43 44 44 44 44 44 44 43 44 44 44 45 48 47 47 49 50 49 48 47 44
52 52 51 50 50 49 52 50 51 52 53 52 54 54 54 57 55 54 53 59 61 56 54 56 57 56 53 51 52 51 49 54 53 49 47 47 48 48 48 46 47 53 52 48 48 50 50 47 45 44 44 43 42 41 39 38 40 40 40 40 42 42 42 42 41 43 44 44 43 41 43 42 42 41 42 42 45 46 47 46 48 49 47 44 43
51 50 52 50 48 49 47 50 52 55 55 53 52 52 51 60 49 50 54 61 57 51 49 49 51 53 58 54 54 55 55 52 49 48 47 46 46 45 44 43 44 44 47 51 51 51 49 47 44 43 43 43 42 41 41 40 39 39 38 39 40 43 42 41 40 41 42 41 41 42 41 42 42 42 41 41 44 44 45 47 45 46 44 42 42
52 52 52 51 53 53 52 53 53 53 53 54 53 52 51 50 57 52 47 51 51 49 47 46 45 46 49 52 58 57 58 49 46 46 46 45 44 43 42 42 43 43 44 44 49 50 47 47 44 44 44 43 43 43 41 41 40 39 40 40 39 41 42 42 44 45 41 40 40 42 41 41 41 43 41 42 44 44 43 44 44 43 43 42 42
53 53 54 54 54 55 53 55 55 54 53 53 52 52 50 48 47 50 63 47 46 47 45 44 44 44 44 44 44 47 47 45 45 45 44 43 42 41 41 41 41 41 43 46 50 49 48 47 44 45 45 43 43 42 42 41 41 40 40 41 40 41 42 48 48 46 42 40 42 40 40 41 40 41 41 42 44 44 43 43 42 43 44 42 42
53 52 52 53 54 54 53 55 55 54 54 54 52 52 50 50 48 50 48 49 60 56 46 43 43 43 43 43 43 43 43 43 43 43 42 42 41 41 40 47 39 39 43 52 52 50 48 47 45 44 44 44 43 42 42 43 41 42 41 41 42 43 46 48 47 42 41 40 40 40 40 39 41 41 41 41 42 43 42 41 41 42 43 42 41
54 53 53 54 54 54 54 55 54 55 54 54 52 50 50 50 51 49 47 48 47 47 46 58 51 43 53 47 42 41 41 41 42 42 41 41 41 40 42 50 49 46 45 48 51 49 48 47 46 44 44 45 43 43 43 43 42 41 42 42 42 42 44 44 43 44 42 41 39 40 39 42 42 40 42 41 41 43 42 42 41 41 43 42 43
54 53 53 54 53 54 54 55 55 54 54 53 52 50 50 48 47 47 47 47 47 47 47 48 51 52 48 47 42 41 40 40 41 41 40 40 40 41 51 53 51 48 49 52 50 48 47 47 46 46 45 45 45 44 44 42 42 41 42 41 40 42 43 43 43 44 43 43 41 42 42 42 40 40 40 41 42 41 42 42 41 41 42 41 45
55 54 53 54 55 54 54 54 55 54 56 53 52 51 49 49 48 47 49 47 47 47 47 52 52 56 58 57 49 42 40 41 41 41 40 40 40 46 51 51 47 47 46 46 47 47 47 47 47 47 47 46 45 45 44 43 44 45 43 45 46 44 42 42 42 44 43 41 41 41 42 42 39 43 40 40 40 41 41 42 42 42 42 41 42
55 54 53 55 56 55 55 54 52 55 55 54 54 54 51 51 50 48 48 47 48 47 49 50 48 47 49 51 57 55 48 42 41 40 40 39 44 48 51 52 52 48 46 46 47 47 47 46 47 46 46 46 46 45 44 44 43 44 44 46 48 46 41 42 44 45 46 43 41 39 39 40 40 40 40 40 41 40 42 43 41 41 42 41 40
56 59 60 62 59 53 51 51 51 51 51 51 51 52 50 49 48 46 47 47 48 48 48 48 46 45 46 50 57 59 54 54 53 53 54 52 52 52 53 52 51 49 48 47 47 48 47 46 46 47 47 46 45 45 45 44 44 44 46 44 42 42 44 42 44 46 42 41 40 40 38 39 40 40 40 40 41 41 42 42 42 41 41 40 39
52 52 57 60 54 54 52 52 51 51 51 51 50 50 49 48 49 47 47 46 46 47 48 47 46 48 47 49 50 53 52 47 44 44 44 48 54 54 54 52 51 49 49 50 48 47 48 46 47 47 49 49 47 46 47 48 46 45 45 44 42 42 42 42 41 41 41 41 40 41 39 38 39 40 41 40 38 39 43 42 41 43 40 40 40
52 53 53 58 56 52 51 51 51 51 52 52 51 51 50 49 49 48 48 47 47 47 48 49 47 47 47 57 51 51 50 45 44 44 43 43 44 48 54 52 51 49 48 48 48 50 48 47 47 47 48 50 49 48 47 47 45 45 44 44 43 42 40 41 42 42 41 41 39 39 39 39 39 38 38 39 39 40 41 40 39 40 39 40 39
51 52 52 53 54 54 51 50 51 51 54 53 54 51 49 49 48 47 47 47 47 47 47 46 46 46 48 50 48 47 52 47 47 45 45 43 44 46 46 51 53 52 48 47 49 49 49 50 48 48 48 50 49 47 45 45 45 44 44 43 44 42 42 39 40 44 42 41 39 39 40 39 38 38 38 32 38 39 41 39 40 37 38 39 38
54 52 51 53 51 51 52 51 52 51 51 51 51 51 50 50 50 48 47 48 47 47 47 47 45 46 53 51 53 48 52 46 46 46 45 45 44 44 44 45 49 52 53 51 48 48 49 49 49 49 49 49 51 50 48 45 45 45 44 44 43 42 42 41 39 40 41 40 39 40 40 40 39 39 37 37 38 38 38 40 39 38 38 37 39
53 52 53 51 52 52 52 51 51 51 50 51 51 51 50 51 49 49 48 48 48 47 45 44 44 44 46 55 52 52 49 45 46 44 46 45 45 45 43 42 45 47 49 52 51 51 50 49 50 48 51 51 51 52 49 46 45 46 44 43 42 42 41 40 40 41 40 40 40 38 39 40 39 38 38 37 38 38 37 38 39 37 37 35 36
52 51 50 50 51 52 52 53 51 51 52 50 49 50 50 48 47 47 46 45 48 45 44 43 43 43 43 44 46 46 45 44 47 46 46 45 45 44 45 43 45 48 49 48 49 52 50 48 50 49 49 51 52 51 50 48 47 46 43 43 44 40 41 41 41 41 41 41 38 39 39 40 38 39 37 37 38 38 36 37 36 35 37 34 37
50 49 49 50 51 52 51 50 50 49 48 48 48 46 47 46 47 46 45 45 44 46 44 44 45 44 44 43 43 44 44 46 45 45 47 44 44 46 46 44 45 46 45 46 48 49 49 48 47 47 48 50 51 51 49 49 47 47 47 45 44 42 41 41 41 41 39 39 36 37 38 38 39 38 39 39 37 36 37 39 37 36 37 37 37
51 51 50 50 50 51 52 52 49 48 51 49 49 47 47 46 45 46 46 45 47 45 44 44 45 42 45 43 44 45 45 44 44 44 45 47 47 47 47 48 46 48 45 47 50 47 48 50 50 49 49 49 51 52 50 46 48 45 48 45 45 44 42 43 41 43 42 41 41 37 36 38 37 37 40 38 37 36 39 37 37 36 35 37 36
52 52 51 52 50 50 50 49 49 51 49 48 48 47 46 46 45 45 44 44 44 43 42 45 43 43 44 43 44 46 46 45 45 46 44 46 45 45 48 48 47 46 48 48 47 48 47 48 49 50 49 50 50 51 51 48 48 47 46 47 47 45 42 43 45 45 44 43 43 41 37 36 36 36 34 34 36 37 36 36 37 36 36 37 37
51 51 50 50 49 50 49 48 49 48 48 47 46 46 45 44 46 43 43 44 42 43 43 44 42 42 43 45 44 44 45 48 46 45 45 45 46 47 47 49 50 49 47 45 45 46 47 49 49 49 49 51 51 51 51 49 46 46 47 46 46 43 42 41 42 44 42 43 43 41 41 39 38 38 39 40 39 41 39 37 38 36 34 36 36
52 51 50 50 49 49 49 48 49 49 49 49 46 45 45 46 43 42 43 43 42 44 43 42 43 44 42 42 43 44 45 45 44 45 45 48 46 47 47 48 50 51 48 47 46 46 46 49 51 51 49 50 49 50 49 48 47 47 47 48 45 44 43 42 42 41 41 42 41 41 41 41 41 40 38 39 40 40 40 38 37 36 37 35 37
52 51 51 51 49 49 49 48 48 49 50 48 46 45 45 44 42 42 43 43 42 43 43 43 45 43 45 43 43 43 43 45 46 46 46 46 47 47 49 49 50 51 51 50 49 47 47 47 47 50 50 50 48 47 48 47 48 48 45 45 44 42 41 41 48 40 39 39 44 44 43 41 42 41 40 39 38 39 39 39 36 36 37 35 36